This is the latest recevied weather packets stored in our database for station/object KA3BQE-13. If no packets are shown the sender has not sent any weather packets the latest 10 day(s).
| Time | Temp. | Humidity | Pressure | Rain* | Wind** | Luminosity | Snow |
|---|---|---|---|---|---|---|---|
| 1777999423 | 11.67° C | 78% | 1012.2 hPa | 0 mm | - | 365 W/m² | - |
| 1777999121 | 11.11° C | 77% | 1012.1 hPa | 0 mm | - | 407 W/m² | - |
| 1777998820 | 11.11° C | 78% | 1012.2 hPa | 0 mm | - | 418 W/m² | - |
| 1777998518 | 11.11° C | 79% | 1012 hPa | 0 mm | - | 410 W/m² | - |
| 1777998213 | 10.56° C | 80% | 1011.8 hPa | 0 mm | - | 335 W/m² | - |
| 1777997911 | 10.56° C | 77% | 1012.1 hPa | 0 mm | - | 279 W/m² | - |
| 1777997608 | 10.56° C | 79% | 1011.7 hPa | 0 mm | - | 308 W/m² | - |
| 1777997305 | 10.56° C | 76% | 1011.4 hPa | 0 mm | - | 404 W/m² | - |
| 1777997003 | 10.56° C | 79% | 1011.1 hPa | 0 mm | - | 381 W/m² | - |
| 1777996700 | 10° C | 78% | 1010.9 hPa | 0 mm | - | 329 W/m² | - |
| 1777996395 | 10.56° C | 78% | 1011 hPa | 0 mm | - | 302 W/m² | - |
| 1777996092 | 10° C | 78% | 1010.9 hPa | 0 mm | - | 273 W/m² | - |
| 1777995788 | 10° C | 80% | 1011 hPa | 0 mm | - | 300 W/m² | - |
| 1777995485 | 10.56° C | 80% | 1011 hPa | 0 mm | - | 287 W/m² | - |
| 1777995182 | 10.56° C | 79% | 1011.1 hPa | 0 mm | - | 286 W/m² | - |
| 1777994879 | 10.56° C | 78% | 1011 hPa | 0 mm | - | 328 W/m² | - |
| 1777994575 | 10.56° C | 79% | 1011.1 hPa | 0 mm | - | 437 W/m² | - |
| 1777994270 | 11.11° C | 79% | 1011 hPa | 0 mm | - | 408 W/m² | - |
| 1777993968 | 10.56° C | 78% | 1011.2 hPa | 0 mm | - | 381 W/m² | - |
| 1777993664 | 10.56° C | 79% | 1010.9 hPa | 0 mm | - | 366 W/m² | - |
| 1777993362 | 10° C | 80% | 1010.6 hPa | 0 mm | - | 370 W/m² | - |
| 1777993056 | 10° C | 79% | 1010.8 hPa | 0 mm | - | 286 W/m² | - |
| 1777992755 | 10° C | 80% | 1010.5 hPa | 0 mm | - | 393 W/m² | - |
| 1777992452 | 9.44° C | 78% | 1010.8 hPa | 0 mm | - | 379 W/m² | - |
| 1777992151 | 9.44° C | 78% | 1010.8 hPa | 0 mm | - | 311 W/m² | - |
* Rain latest hour (hover to see other rain measurements)
** Current wind speed in m/s (hover to see current wind gust speed)